STARLINK-1900 (47176 NORAD) Tracking and Keplerian Element Data

This shows tracking and keplerian element data for the satellite.

Feedback or suggestion? Click here.




ElementValue
Catalog47176
NameSTARLINK-1900
Epoch Orbit2261
Epoch Day99.84781095
Epoch Year2021
RAAN41.8081
Inclination53.0489
Eccentricity0.0003365
Argument of Perigee247.3498
Mean Anonmoly112.7174
Mean Motion15.95578441
Decay Rate0.00713782
L11 47176U 20088BG 21099.84781095 .00713782 22829-3 17482-2 0 9994
L22 47176 53.0489 41.8081 0003365 247.3498 112.7174 15.95578441 22615

Live tracking and technical data element details for STARLINK-1900 (NORAD 47176). STARLINK-1900 can be tracked NOW for your location showing map with azimuth and elevation plus other details from your city location.

Track the satellite on the map from your city or location and see movement details for azimuth, elevation, latitude, longitude, range, height, and movement on the map or in text.







IsCatalogInMostPopularTable: catalog: 47176, numindb: 55
Update: records affected: 1



GetName: 47176 STARLINK-1900

Hit Count: updated at: Sat, 10 Apr 2021 19:52:18 GMT